Flag for Denmark Weather past 2 weeks in Kolding, Denmark

Now
23 °F

Cold.


Feels Like: 17 °F
Forecast: 25 / 34 °F
Wind: 5 mph from Northwest

Location: Vamdrup

Current Time: Dec 28, 2014 at 7:48:00 AM

Latest Report: Dec 28, 2014 at 7:20 AM


Visibility: N/A

Pressure: 30.21 "Hg

Humidity: 93%

Dew point: 21 °F

Location of KoldingLocation

Historic Weather in Kolding — Graph

°F

Kolding temperature yesterday

Maximum temperature yesterday: 32 °F (at 12:20 AM)
Minimum temperature yesterday: 27 °F (at 6:50 PM)
Average temperature yesterday: 30 °F

Past Weeks' High & Low Weather Summary

 TemperatureHumidityPressure
High52 °F (Dec 18, 8:20 PM)100% (Dec 15, 5:50 AM)30.33 "Hg (Dec 15, 5:50 AM)
Low23 °F (Dec 26, 1:20 AM)71% (Dec 20, 5:20 AM)29.39 "Hg (Dec 18, 6:20 PM)
Average39 °F90%29.73 "Hg
* Reported Dec 13 6:20 AM — Dec 28 6:50 AM, Kolding, Weather by CustomWeather, © 2014

Note: Actual official high and low records may vary slightly from our data, if they occured in-between our weather recording intervals... More about our weather records

Advertising

Kolding weather history for previous 24 hours

 ConditionsComfort  
Time TempWeatherWind HumidityBarometerVisibility
6:50 AM
Dec 28
25 °FCold.5 mph93%30.21 "HgN/A
6:20 AM25 °FCold.6 mph93%30.21 "HgN/A
5:50 AM25 °FCold.3 mph93%30.18 "HgN/A
5:20 AM27 °FChilly.6 mph86%30.18 "HgN/A
4:20 AM27 °FChilly.7 mph93%30.15 "HgN/A
3:50 AM27 °FChilly.8 mph93%30.15 "HgN/A
3:20 AM28 °FChilly.8 mph86%30.12 "HgN/A
2:50 AM28 °FChilly.8 mph86%30.12 "HgN/A
2:20 AM28 °FChilly.8 mph93%30.09 "HgN/A
1:50 AM28 °FChilly.8 mph93%30.09 "HgN/A
1:20 AM30 °FChilly.8 mph86%30.09 "HgN/A
12:50 AM30 °FChilly.8 mph93%30.07 "HgN/A
12:20 AM30 °FChilly.8 mph100%30.07 "HgN/A
11:50 PM
Dec 27
32 °FChilly.8 mph93%30.04 "HgN/A
11:20 PM30 °FChilly.8 mph100%30.04 "HgN/A
10:50 PM30 °FChilly.9 mph93%30.04 "HgN/A
10:20 PM28 °FChilly.9 mph100%30.04 "HgN/A
9:50 PM28 °FChilly.7 mph93%30.01 "HgN/A
9:20 PM28 °FChilly.8 mph93%30.01 "HgN/A
8:50 PM28 °FChilly.7 mph93%30.01 "HgN/A
8:20 PM27 °FChilly.6 mph100%29.98 "HgN/A
7:50 PM28 °FChilly.6 mph93%29.98 "HgN/A
7:20 PM27 °FChilly.6 mph100%29.98 "HgN/A
6:50 PM27 °FChilly.3 mph93%29.95 "HgN/A
6:20 PM28 °FChilly.3 mph93%29.95 "HgN/A
5:50 PM28 °FChilly.6 mph93%29.95 "HgN/A
5:20 PM28 °FChilly.6 mph93%29.92 "HgN/A
4:50 PM28 °FChilly.8 mph93%29.92 "HgN/A
4:20 PM30 °FChilly.8 mph86%29.92 "HgN/A
3:50 PM30 °FChilly.8 mph86%29.92 "HgN/A
3:20 PM30 °FChilly.8 mph93%29.89 "HgN/A
2:50 PM30 °FChilly.8 mph93%29.89 "HgN/A
2:20 PM30 °FChilly.9 mph93%29.89 "HgN/A
1:50 PM30 °FChilly.6 mph93%29.89 "HgN/A
1:20 PM30 °FChilly.7 mph93%29.89 "HgN/A
12:50 PM30 °FChilly.8 mph93%29.89 "HgN/A
12:20 PM30 °FChilly.8 mph100%29.89 "HgN/A
11:50 AM30 °FChilly.8 mph100%29.89 "HgN/A
11:20 AM30 °FChilly.10 mph100%29.89 "HgN/A
10:50 AM30 °FChilly.9 mph100%29.89 "HgN/A
10:20 AM30 °FChilly.8 mph100%29.89 "HgN/A
9:50 AM30 °FChilly.7 mph100%29.89 "HgN/A
9:20 AM30 °FChilly.7 mph100%29.89 "HgN/A
8:50 AM30 °FChilly.7 mph100%29.89 "HgN/A
8:20 AM30 °FChilly.8 mph100%29.89 "HgN/A
7:50 AM30 °FChilly.6 mph100%29.89 "HgN/A
7:20 AM30 °FChilly.7 mph100%29.89 "HgN/A
Weather by CustomWeather, © 2014

See weather overviewHow to use our weather pages